SCP
0 0 0 0 0 0 0 0 0 0 0 0 0 0 0 0 0 0 0 0 0 0 0 0 0 0 0 0 0 0 0 0 0 0 0 0 0 0 0 0 0 0 0
0 0 0 0 0 0 0 0 0 0 0 0 0 0 0 0 0 0 0 0 0 0 0 0 0 0 0 0 0 0 0 0 0 0 0 0 0 0 0 0 0 0 0
0 0 0 0 0 0 0 0 0 0 0 0 0 0 0 0 0 0 0 0 0 0 0 0 0 0 0 0 0 0 0 0 0 0 0 0 0 0 0 0 0 0 0
0 0 0 0 0 0 0 0 0 0 0 0 0 0 0 0 0 0 0 0 0 0 0 0 0 0 0 0 0 0 0 0 0 0 0 0 0 0 0 0 -0 0 0
0 0 0 0 0 0 0 0 0 0 0 0 0 0 0 0 0 0 0 0 0 0 0 0 0 0 0 0 0 0 0 0 0 0 0 0 0 0 0 0 0 0 0
0 0 0 0 0 0 0 0 0 0 0 0 0 0 0 0 0 0 0 0 0 0 0 0 0 0 0 0 0 0 0 0 0 0 0 0 0 0 0 0 0 0 0
0 0 0 0 0 0 0 0 0 0 0 0 0 0 0 0 0 0 0 0 0 0 0 0 0 0 0 0 0 0 0 0 0 0 0 0 0 0 0 0 0 0 0
0 0 0 0 0 0 0 0 0 0 0 0 0 0 0 0 0 0 0 0 0 0 0 0 0 0 0 0 0 0 0 0 0 0 0 -0 0 0 0 0 0 0 0
0 0 0 0 0 0 0 0 0 0 0 0 0 0 0 0 0 0 0 0 0 0 0 0 0 0 0 0 0 0 0 0 0 0 -0 -0 -0 -0 -0 0 0 0 0
0 0 0 0 0 0 0 0 0 0 0 0 0 0 0 0 0 0 0 0 0 0 0 0 0 0 0 0 0 0 0 0 -0 -0 0 0 0 0 0 0 0 0 0
0 0 0 0 0 0 0 0 0 0 0 0 0 0 0 0 0 0 0 0 0 0 0 0 0 0 0 0 0 0 0 0 -0 -0 -0 -0 0 0 0 0 0 0 0
0 0 0 0 0 0 0 0 0 0 0 0 0 0 0 0 0 0 0 0 0 0 0 0 0 -0 0 0 0 0 0 0 -0 -0 -0 -0 -0 0 0 0 0 0 0
0 0 0 0 0 0 0 0 0 0 0 0 0 0 0 0 0 0 0 0 0 0 0 0 -0 0 0 0 0 0 0 0 0 0 0 0 0 0 0 0 0 0 0
0 0 0 0 0 0 0 0 0 0 0 0 0 0 0 0 0 0 0 0 0 0 0 0 0 0 0 0 0 0 0 0 0 0 0 0 0 0 0 0 0 0 0
0 0 0 0 0 0 0 0 0 0 0 0 0 0 0 0 0 0 0 0 0 0 0 -0 0 0 0 0 0 0 0 0 0 0 0 0 0 0 0 0 0 0 -0
0 0 0 0 0 0 0 0 0 0 0 0 0 0 0 0 0 0 0 0 0 0 0 0 0 0 0 0 0 0 0 0 0 0 0 0 0 0 0 0 -0 -0 -0
0 0 0 0 0 0 0 0 0 0 0 0 0 0 0 0 0 0 0 0 0 0 0 0 0 0 0 0 0 0 0 0 0 0 0 0 0 0 0 0 0 0 -0
0 0 0 0 0 0 0 0 0 0 0 0 0 0 0 0 0 0 0 0 0 0 0 0 0 0 0 0 0 0 0 0 0 0 0 0 0 0 0 0 0 -0 -0
0 0 0 0 0 0 0 0 0 0 0 0 0 0 0 0 0 0 0 0 0 0 0 0 0 0 0 0 0 0 0 0 0 0 0 0 0 0 0 0 0 0 -0
0 0 0 0 0 0 0 0 0 0 0 0 0 0 0 0 0 0 0 0 0 0 0 0 0 0 0 0 0 0 0 0 0 0 0 0 0 0 0 0 0 0 0
0 0 0 0 0 0 0 0 0 0 0 0 0 0 0 0 0 0 0 0 0 0 0 0 0 0 0 0 0 0 0 0 0 0 0 0 0 0 0 0 0 0 0
0 0 0 0 0 0 0 0 0 0 0 0 0 0 0 0 0 0 0 0 0 0 0 0 0 0 0 0 0 0 0 0 0 0 0 0 0 0 -0 -0 -0 0 0
0 0 0 0 0 0 0 0 0 0 0 0 0 0 0 0 0 0 0 0 0 0 0 0 0 0 0 0 0 0 0 0 0 0 0 -0 -0 -0 -0 -0 -0 -0 0
0 0 0 0 0 0 0 0 0 0 0 0 0 0 0 0 0 0 0 0 0 0 0 0 0 0 0 0 0 0 0 0 0 0 -0 -0 -0 -0 -0 -0 -0 -0 -0
0 0 0 0 0 0 0 0 0 0 0 0 0 0 0 0 0 0 0 0 0 0 0 0 0 0 0 0 0 -0 -0 -0 -0 -0 -0 -0 -0 -0 -0 -0 -0 0 0
0 0 0 0 0 0 0 0 0 0 0 0 0 0 0 0 0 0 0 0 0 0 0 0 0 -0 -0 -0 -0 -0 -0 -0 -0 -0 -0 -0 -0 -0 -0 -0 0 0 0
Wind_Speed_500mb
22 26 31 34 37 42 46 47 49 51 52 54 58 63 65 65 65 67 68 71 77 83 86 91 97 95 96 93 88 82 76 71 81 102 86 86 80 85 92 92 84 79 83
25 29 34 38 39 42 46 49 51 54 53 56 59 64 67 68 69 70 72 75 81 88 94 98 103 99 98 89 78 74 74 74 77 92 93 89 93 90 85 84 84 87 78
33 36 39 42 43 44 46 49 52 53 54 57 60 66 69 70 72 72 73 79 86 93 99 102 104 94 88 78 76 76 74 76 75 83 102 95 85 84 82 88 80 82 86
40 42 46 45 44 47 49 54 54 55 57 59 62 68 69 70 71 72 75 82 91 97 100 99 95 88 76 76 76 77 78 78 77 80 87 87 81 85 73 72 90 88 91
43 46 47 47 49 51 53 57 58 59 60 62 65 69 69 69 70 71 75 85 92 97 96 94 91 79 69 66 67 71 72 76 74 83 91 82 82 73 72 80 79 95 99
45 47 48 52 54 55 57 60 60 60 62 64 66 70 68 68 70 72 77 84 87 88 92 91 81 71 66 61 61 62 62 68 74 78 96 92 89 74 82 89 87 81 97
46 50 54 55 57 58 60 62 61 64 66 65 69 68 67 68 73 77 79 79 83 82 79 75 72 67 68 71 70 68 70 66 62 72 87 86 93 89 86 91 91 89 102
52 56 57 57 57 58 61 64 66 65 64 66 69 65 64 68 75 78 77 80 80 77 71 69 69 72 71 66 74 74 75 80 82 83 85 91 89 88 86 92 94 100 113
56 57 55 55 57 60 63 65 64 64 65 66 65 63 65 71 77 74 73 76 77 72 66 69 70 74 71 64 71 82 87 86 82 75 80 84 84 81 79 82 90 86 102
54 54 56 59 63 65 65 64 62 62 64 63 61 62 66 73 76 75 67 67 72 69 70 69 69 66 64 68 73 79 91 87 91 90 93 91 88 86 78 65 65 79 89
53 57 62 64 64 64 62 60 59 59 60 60 62 65 71 78 80 73 62 57 60 72 72 76 77 69 67 70 72 78 82 80 83 86 90 85 80 78 73 60 61 70 87
58 61 63 63 63 61 60 58 58 58 60 60 64 69 74 80 81 73 61 50 54 62 71 75 76 72 71 72 73 69 68 69 75 73 74 74 75 75 74 70 69 71 74
58 58 58 58 56 56 55 55 55 55 57 59 63 71 78 81 82 76 62 58 54 61 67 69 69 69 79 77 69 66 65 65 67 70 72 73 72 75 74 72 66 59 58
53 54 53 53 52 52 52 52 54 53 54 58 63 70 77 81 79 72 64 69 70 70 69 76 85 82 71 66 63 59 62 64 65 67 70 72 71 72 70 64 65 57 55
51 50 50 50 50 50 52 52 51 50 52 56 59 63 70 76 68 57 60 62 65 65 69 77 72 75 74 70 67 66 68 68 67 68 71 73 71 71 70 64 60 57 54
45 44 45 46 47 49 51 51 47 52 54 53 50 54 58 52 54 55 55 56 55 58 63 67 69 69 69 69 70 72 71 72 71 71 71 71 72 72 73 66 61 57 54
40 42 43 44 46 47 49 53 63 62 58 52 46 47 51 48 50 51 52 48 55 53 57 61 63 65 68 69 70 71 74 73 73 73 72 72 71 70 70 70 65 59 53
38 39 39 39 42 45 50 56 61 66 69 65 48 44 50 51 51 49 40 50 48 47 55 62 64 65 69 71 68 70 74 74 75 74 73 72 71 72 73 71 67 65 59
35 34 36 38 43 48 52 55 56 57 58 58 57 44 44 47 46 43 49 45 49 50 54 62 64 63 67 71 70 69 72 76 76 76 76 76 75 75 74 72 70 66 59
30 31 35 40 44 47 49 50 51 51 52 52 52 52 49 49 48 48 50 49 49 51 55 64 67 63 66 70 69 69 73 76 76 76 78 79 79 78 78 76 72 70 63
28 33 38 40 41 42 43 45 46 47 48 48 47 46 45 47 49 49 49 48 50 52 57 65 67 64 66 69 66 69 73 76 77 78 80 81 84 86 80 77 76 71 62
29 31 33 35 37 38 39 41 43 44 45 47 46 45 44 44 45 47 46 48 49 50 55 65 66 63 68 67 66 71 76 77 78 80 83 85 88 88 84 82 80 72 62
25 28 31 32 34 36 36 38 41 42 44 44 46 47 46 46 47 48 46 49 51 53 57 64 63 65 66 62 63 69 76 79 81 81 88 92 95 94 89 85 78 70 59
25 27 27 29 32 34 37 38 39 40 41 43 44 45 45 46 48 49 46 50 54 55 60 64 63 66 66 64 65 66 69 72 77 83 88 99 105 95 88 83 76 66 53
23 24 26 29 32 34 35 37 38 39 40 42 44 45 47 48 48 49 46 52 56 60 66 67 64 65 67 71 64 65 67 70 75 84 89 99 96 84 82 75 63 54 43
19 23 26 30 32 34 36 37 38 39 41 43 44 45 48 49 50 51 49 55 58 63 68 70 65 62 70 71 70 71 72 75 83 87 81 83 78 74 64 57 47 36 25
Wind_Direction_500mb
299 302 299 304 305 305 305 308 310 312 317 317 319 323 324 325 324 322 321 321 320 320 320 320 317 318 316 313 308 302 295 291 290 295 296 300 301 296 299 302 305 308 309
291 302 303 303 306 306 306 305 305 308 313 312 313 316 319 320 321 320 319 319 319 318 318 317 315 315 313 310 304 298 298 298 294 294 301 297 298 301 302 305 306 306 306
279 288 296 296 297 300 303 304 301 304 306 307 308 312 316 318 318 317 317 318 317 318 317 315 314 313 310 306 303 297 295 295 293 291 295 300 301 302 305 303 307 307 308
278 282 290 295 298 300 301 304 302 300 303 305 307 309 312 315 315 315 317 318 316 314 314 313 311 310 305 302 300 298 296 296 297 297 296 294 295 299 302 303 305 306 306
277 283 296 300 300 300 300 303 300 299 301 302 303 306 309 311 313 316 319 316 314 315 314 313 313 311 304 299 297 299 300 299 294 296 295 292 293 299 297 301 298 302 302
277 286 295 298 300 299 298 299 298 298 300 298 301 305 308 311 314 319 319 315 314 313 315 316 315 316 313 305 299 296 294 295 295 293 288 293 294 296 298 297 297 297 299
287 294 298 297 297 297 298 299 298 298 297 297 301 304 306 311 316 321 320 315 316 315 317 319 316 316 312 309 305 300 297 297 292 291 290 291 293 295 295 294 293 291 289
290 294 296 296 296 298 300 298 297 295 294 296 299 300 304 312 318 322 320 317 317 317 318 319 317 314 310 309 306 308 306 297 296 296 295 295 295 297 295 292 292 291 289
294 297 297 292 295 297 297 295 294 293 293 296 298 303 310 315 320 323 321 319 318 316 316 316 315 311 308 311 306 303 304 307 307 299 293 290 290 289 287 287 283 283 283
301 295 294 296 297 296 296 295 293 292 294 298 301 306 311 317 321 324 323 319 315 314 310 312 311 310 311 309 308 308 305 305 306 306 300 298 298 299 298 288 285 280 281
292 291 293 295 295 294 294 293 294 295 296 299 301 308 316 319 320 323 323 317 310 310 313 313 311 312 315 313 309 303 303 306 303 297 298 301 302 302 304 301 288 280 280
289 291 295 295 294 294 294 296 296 296 298 301 304 310 316 318 318 322 322 314 311 309 310 309 315 321 313 311 308 309 309 305 303 307 309 309 309 308 306 303 300 294 287
291 294 293 293 293 293 295 295 296 299 300 304 310 313 315 316 317 323 325 323 315 312 311 314 311 309 312 314 318 318 316 317 319 318 317 315 316 314 311 310 306 300 287
297 295 293 292 293 295 295 296 296 299 302 307 313 314 314 314 316 323 329 325 317 317 327 316 305 309 314 317 319 323 327 329 328 325 322 320 320 319 315 318 315 311 300
294 293 292 295 297 296 295 296 298 301 306 310 315 311 309 308 316 316 313 313 314 318 308 304 316 322 324 326 328 331 333 334 333 331 328 326 324 324 323 324 319 315 304
292 292 295 294 293 294 296 296 297 300 303 307 309 303 302 302 309 311 310 312 315 310 311 320 321 326 329 331 331 331 335 336 336 334 332 331 330 329 327 326 325 320 312
293 293 292 294 296 299 300 303 305 306 309 313 314 307 305 310 310 314 315 316 301 314 319 322 328 332 333 333 332 332 334 336 336 335 335 334 333 331 332 329 328 325 315
291 294 297 298 299 301 303 308 310 311 314 320 323 317 310 312 312 317 319 316 317 317 327 331 333 334 335 334 332 331 333 335 336 335 335 335 335 333 331 331 329 326 320
296 297 300 302 304 308 310 311 312 313 317 321 322 322 314 315 319 321 326 325 326 327 331 332 334 334 334 334 333 332 332 334 335 334 335 334 334 333 330 330 329 327 323
300 303 303 306 308 310 313 317 318 320 323 326 328 329 329 325 330 329 327 329 330 332 334 333 334 334 334 334 333 333 332 334 334 334 333 333 333 332 329 329 329 327 324
304 306 310 314 317 320 323 325 325 327 328 328 329 330 333 326 328 328 327 330 333 334 336 335 335 335 336 334 333 332 333 333 334 333 331 332 332 329 328 326 325 325 323
309 315 320 322 326 330 331 330 329 331 331 330 330 329 328 326 327 329 330 332 335 335 336 336 335 336 338 336 334 334 334 334 336 334 332 331 329 328 327 324 320 321 320
320 326 328 330 333 334 334 332 333 332 332 330 330 330 332 331 331 333 332 335 336 336 338 338 337 338 340 338 335 335 335 336 336 336 333 331 329 327 323 318 318 316 316
334 337 338 338 339 337 334 334 333 332 331 330 331 332 335 336 335 335 335 338 338 338 340 341 340 340 341 340 340 339 337 337 339 338 336 329 324 322 318 314 312 310 309
341 341 341 341 340 335 335 336 335 333 332 332 335 337 338 339 338 339 338 339 339 339 343 343 341 343 344 344 338 336 338 339 341 339 333 327 319 317 313 308 306 305 297
343 344 344 341 339 336 336 335 335 335 335 335 338 339 339 340 340 341 341 341 340 341 341 342 344 346 347 343 341 340 341 343 341 332 331 334 323 318 319 308 303 292 287
Wind_Speed_850mb
22 26 31 34 37 42 46 47 49 51 52 54 58 63 65 65 65 67 68 71 77 83 86 91 97 95 96 93 88 82 76 71 81 102 86 86 80 85 92 92 84 79 83
25 29 34 38 39 42 46 49 51 54 53 56 59 64 67 68 69 70 72 75 81 88 94 98 103 99 98 89 78 74 74 74 77 92 93 89 93 90 85 84 84 87 78
33 36 39 42 43 44 46 49 52 53 54 57 60 66 69 70 72 72 73 79 86 93 99 102 104 94 88 78 76 76 74 76 75 83 102 95 85 84 82 88 80 82 86
40 42 46 45 44 47 49 54 54 55 57 59 62 68 69 70 71 72 75 82 91 97 100 99 95 88 76 76 76 77 78 78 77 80 87 87 81 85 73 72 90 88 91
43 46 47 47 49 51 53 57 58 59 60 62 65 69 69 69 70 71 75 85 92 97 96 94 91 79 69 66 67 71 72 76 74 83 91 82 82 73 72 80 79 95 99
45 47 48 52 54 55 57 60 60 60 62 64 66 70 68 68 70 72 77 84 87 88 92 91 81 71 66 61 61 62 62 68 74 78 96 92 89 74 82 89 87 81 97
46 50 54 55 57 58 60 62 61 64 66 65 69 68 67 68 73 77 79 79 83 82 79 75 72 67 68 71 70 68 70 66 62 72 87 86 93 89 86 91 91 89 102
52 56 57 57 57 58 61 64 66 65 64 66 69 65 64 68 75 78 77 80 80 77 71 69 69 72 71 66 74 74 75 80 82 83 85 91 89 88 86 92 94 100 113
56 57 55 55 57 60 63 65 64 64 65 66 65 63 65 71 77 74 73 76 77 72 66 69 70 74 71 64 71 82 87 86 82 75 80 84 84 81 79 82 90 86 102
54 54 56 59 63 65 65 64 62 62 64 63 61 62 66 73 76 75 67 67 72 69 70 69 69 66 64 68 73 79 91 87 91 90 93 91 88 86 78 65 65 79 89
53 57 62 64 64 64 62 60 59 59 60 60 62 65 71 78 80 73 62 57 60 72 72 76 77 69 67 70 72 78 82 80 83 86 90 85 80 78 73 60 61 70 87
58 61 63 63 63 61 60 58 58 58 60 60 64 69 74 80 81 73 61 50 54 62 71 75 76 72 71 72 73 69 68 69 75 73 74 74 75 75 74 70 69 71 74
58 58 58 58 56 56 55 55 55 55 57 59 63 71 78 81 82 76 62 58 54 61 67 69 69 69 79 77 69 66 65 65 67 70 72 73 72 75 74 72 66 59 58
53 54 53 53 52 52 52 52 54 53 54 58 63 70 77 81 79 72 64 69 70 70 69 76 85 82 71 66 63 59 62 64 65 67 70 72 71 72 70 64 65 57 55
51 50 50 50 50 50 52 52 51 50 52 56 59 63 70 76 68 57 60 62 65 65 69 77 72 75 74 70 67 66 68 68 67 68 71 73 71 71 70 64 60 57 54
45 44 45 46 47 49 51 51 47 52 54 53 50 54 58 52 54 55 55 56 55 58 63 67 69 69 69 69 70 72 71 72 71 71 71 71 72 72 73 66 61 57 54
40 42 43 44 46 47 49 53 63 62 58 52 46 47 51 48 50 51 52 48 55 53 57 61 63 65 68 69 70 71 74 73 73 73 72 72 71 70 70 70 65 59 53
38 39 39 39 42 45 50 56 61 66 69 65 48 44 50 51 51 49 40 50 48 47 55 62 64 65 69 71 68 70 74 74 75 74 73 72 71 72 73 71 67 65 59
35 34 36 38 43 48 52 55 56 57 58 58 57 44 44 47 46 43 49 45 49 50 54 62 64 63 67 71 70 69 72 76 76 76 76 76 75 75 74 72 70 66 59
30 31 35 40 44 47 49 50 51 51 52 52 52 52 49 49 48 48 50 49 49 51 55 64 67 63 66 70 69 69 73 76 76 76 78 79 79 78 78 76 72 70 63
28 33 38 40 41 42 43 45 46 47 48 48 47 46 45 47 49 49 49 48 50 52 57 65 67 64 66 69 66 69 73 76 77 78 80 81 84 86 80 77 76 71 62
29 31 33 35 37 38 39 41 43 44 45 47 46 45 44 44 45 47 46 48 49 50 55 65 66 63 68 67 66 71 76 77 78 80 83 85 88 88 84 82 80 72 62
25 28 31 32 34 36 36 38 41 42 44 44 46 47 46 46 47 48 46 49 51 53 57 64 63 65 66 62 63 69 76 79 81 81 88 92 95 94 89 85 78 70 59
25 27 27 29 32 34 37 38 39 40 41 43 44 45 45 46 48 49 46 50 54 55 60 64 63 66 66 64 65 66 69 72 77 83 88 99 105 95 88 83 76 66 53
23 24 26 29 32 34 35 37 38 39 40 42 44 45 47 48 48 49 46 52 56 60 66 67 64 65 67 71 64 65 67 70 75 84 89 99 96 84 82 75 63 54 43
19 23 26 30 32 34 36 37 38 39 41 43 44 45 48 49 50 51 49 55 58 63 68 70 65 62 70 71 70 71 72 75 83 87 81 83 78 74 64 57 47 36 25
Wind_Direction_850mb
299 302 299 304 305 305 305 308 310 312 317 317 319 323 324 325 324 322 321 321 320 320 320 320 317 318 316 313 308 302 295 291 290 295 296 300 301 296 299 302 305 308 309
291 302 303 303 306 306 306 305 305 308 313 312 313 316 319 320 321 320 319 319 319 318 318 317 315 315 313 310 304 298 298 298 294 294 301 297 298 301 302 305 306 306 306
279 288 296 296 297 300 303 304 301 304 306 307 308 312 316 318 318 317 317 318 317 318 317 315 314 313 310 306 303 297 295 295 293 291 295 300 301 302 305 303 307 307 308
278 282 290 295 298 300 301 304 302 300 303 305 307 309 312 315 315 315 317 318 316 314 314 313 311 310 305 302 300 298 296 296 297 297 296 294 295 299 302 303 305 306 306
277 283 296 300 300 300 300 303 300 299 301 302 303 306 309 311 313 316 319 316 314 315 314 313 313 311 304 299 297 299 300 299 294 296 295 292 293 299 297 301 298 302 302
277 286 295 298 300 299 298 299 298 298 300 298 301 305 308 311 314 319 319 315 314 313 315 316 315 316 313 305 299 296 294 295 295 293 288 293 294 296 298 297 297 297 299
287 294 298 297 297 297 298 299 298 298 297 297 301 304 306 311 316 321 320 315 316 315 317 319 316 316 312 309 305 300 297 297 292 291 290 291 293 295 295 294 293 291 289
290 294 296 296 296 298 300 298 297 295 294 296 299 300 304 312 318 322 320 317 317 317 318 319 317 314 310 309 306 308 306 297 296 296 295 295 295 297 295 292 292 291 289
294 297 297 292 295 297 297 295 294 293 293 296 298 303 310 315 320 323 321 319 318 316 316 316 315 311 308 311 306 303 304 307 307 299 293 290 290 289 287 287 283 283 283
301 295 294 296 297 296 296 295 293 292 294 298 301 306 311 317 321 324 323 319 315 314 310 312 311 310 311 309 308 308 305 305 306 306 300 298 298 299 298 288 285 280 281
292 291 293 295 295 294 294 293 294 295 296 299 301 308 316 319 320 323 323 317 310 310 313 313 311 312 315 313 309 303 303 306 303 297 298 301 302 302 304 301 288 280 280
289 291 295 295 294 294 294 296 296 296 298 301 304 310 316 318 318 322 322 314 311 309 310 309 315 321 313 311 308 309 309 305 303 307 309 309 309 308 306 303 300 294 287
291 294 293 293 293 293 295 295 296 299 300 304 310 313 315 316 317 323 325 323 315 312 311 314 311 309 312 314 318 318 316 317 319 318 317 315 316 314 311 310 306 300 287
297 295 293 292 293 295 295 296 296 299 302 307 313 314 314 314 316 323 329 325 317 317 327 316 305 309 314 317 319 323 327 329 328 325 322 320 320 319 315 318 315 311 300
294 293 292 295 297 296 295 296 298 301 306 310 315 311 309 308 316 316 313 313 314 318 308 304 316 322 324 326 328 331 333 334 333 331 328 326 324 324 323 324 319 315 304
292 292 295 294 293 294 296 296 297 300 303 307 309 303 302 302 309 311 310 312 315 310 311 320 321 326 329 331 331 331 335 336 336 334 332 331 330 329 327 326 325 320 312
293 293 292 294 296 299 300 303 305 306 309 313 314 307 305 310 310 314 315 316 301 314 319 322 328 332 333 333 332 332 334 336 336 335 335 334 333 331 332 329 328 325 315
291 294 297 298 299 301 303 308 310 311 314 320 323 317 310 312 312 317 319 316 317 317 327 331 333 334 335 334 332 331 333 335 336 335 335 335 335 333 331 331 329 326 320
296 297 300 302 304 308 310 311 312 313 317 321 322 322 314 315 319 321 326 325 326 327 331 332 334 334 334 334 333 332 332 334 335 334 335 334 334 333 330 330 329 327 323
300 303 303 306 308 310 313 317 318 320 323 326 328 329 329 325 330 329 327 329 330 332 334 333 334 334 334 334 333 333 332 334 334 334 333 333 333 332 329 329 329 327 324
304 306 310 314 317 320 323 325 325 327 328 328 329 330 333 326 328 328 327 330 333 334 336 335 335 335 336 334 333 332 333 333 334 333 331 332 332 329 328 326 325 325 323
309 315 320 322 326 330 331 330 329 331 331 330 330 329 328 326 327 329 330 332 335 335 336 336 335 336 338 336 334 334 334 334 336 334 332 331 329 328 327 324 320 321 320
320 326 328 330 333 334 334 332 333 332 332 330 330 330 332 331 331 333 332 335 336 336 338 338 337 338 340 338 335 335 335 336 336 336 333 331 329 327 323 318 318 316 316
334 337 338 338 339 337 334 334 333 332 331 330 331 332 335 336 335 335 335 338 338 338 340 341 340 340 341 340 340 339 337 337 339 338 336 329 324 322 318 314 312 310 309
341 341 341 341 340 335 335 336 335 333 332 332 335 337 338 339 338 339 338 339 339 339 343 343 341 343 344 344 338 336 338 339 341 339 333 327 319 317 313 308 306 305 297
343 344 344 341 339 336 336 335 335 335 335 335 338 339 339 340 340 341 341 341 340 341 341 342 344 346 347 343 341 340 341 343 341 332 331 334 323 318 319 308 303 292 287